Managua, Nicaragua

3:58 AM CST on June 24, 2017 (GMT -0600)
Augusto Cesar Sandino

Weather History for MNMG - September, 2013

Change the Weather History Date:

Sunday, September 15, 2013

  Actual Average Record
Temperature  
Mean Temperature 81 °F -  
Max Temperature 87 °F 86 °F 96 °F (2015)
Min Temperature 75 °F 70 °F 39 °F (2002)
Cooling Degree Days 16    
Growing Degree Days 31 (Base 50)    
Moisture  
Dew Point 75 °F    
Average Humidity 89    
Maximum Humidity 100    
Minimum Humidity 62    
Precipitation  
Precipitation 0.00 in - - ()
Sea Level Pressure  
Sea Level Pressure 29.79 in    
Wind  
Wind Speed 2 mph ()    
Max Wind Speed 14 mph    
Max Gust Speed -    
Visibility 5.5 miles    
Events Rain , Thunderstorm    
Averages and records for this station are not official NWS values.
T = Trace of Precipitation, MM = Missing Value Source: Averaged Metar Reports

Daily Weather History Graph

Daily Weather History Graph

Search for Another Location

Airport or City:

Trip Planner

Search our weather history database for the weather conditions in past years. The results will help you decide how hot, cold, wet, or windy it might be!

Date:

Astronomy

Sep. 15, 2013 Rise Set
Actual Time 5:33 AM CST 5:45 PM CST
Civil Twilight 5:12 AM CST 6:06 PM CST
Nautical Twilight 4:48 AM CST 6:31 PM CST
Astronomical Twilight 4:23 AM CST 6:55 PM CST
Moon 2:42 PM CST (9/15) 1:46 AM CST (9/15)
Length of Visible Light 12h 53m
Length of Day
12h 11m
Waxing Gibbous, 82% of the Moon is Illuminated
Sep 15
Waxing Gibbous
Sep 19
Full
Sep 26
Last Quarter
Oct 4
New
Oct 11
First Quarter

Hourly Weather History & Observations

Time (CST) Temp. Heat Index Dew Point Humidity Pressure Visibility Wind Dir Wind Speed Gust Speed Precip Events Conditions
12:00 AM 77.0 °F - 77.0 °F 100% 29.80 in 5.0 mi Calm Calm - N/A   Mostly Cloudy
12:05 AM - - - N/A% - 3.7 mi ESE 4.6 mph - N/A Rain Rain
1:00 AM 77.0 °F - 75.2 °F 94% 29.77 in 3.1 mi ESE 6.9 mph - N/A Rain Rain
1:10 AM - - - N/A% - 5.6 mi Calm Calm - N/A   Light Drizzle
2:00 AM 75.2 °F - 73.4 °F 94% 29.77 in 6.2 mi SSW 4.6 mph - N/A   Scattered Clouds
3:00 AM 75.2 °F - 75.2 °F 100% 29.74 in 6.2 mi Calm Calm - N/A   Scattered Clouds
4:00 AM 75.2 °F - 75.2 °F 100% 29.74 in 6.2 mi Calm Calm - N/A   Scattered Clouds
5:00 AM 75.2 °F - 75.2 °F 100% 29.77 in 6.2 mi Calm Calm - N/A   Scattered Clouds
6:00 AM 75.2 °F - 73.4 °F 94% 29.77 in 5.0 mi Calm Calm - N/A   Scattered Clouds
7:00 AM 77.0 °F - 75.2 °F 94% 29.80 in 5.0 mi Calm Calm - N/A   Scattered Clouds
8:00 AM 78.8 °F - 75.2 °F 89% 29.83 in 6.2 mi ESE 6.9 mph - N/A   Mostly Cloudy
9:00 AM 80.6 °F 86.2 °F 75.2 °F 84% 29.83 in 6.2 mi South 4.6 mph - N/A   Scattered Clouds
10:00 AM 84.2 °F 92.3 °F 75.2 °F 74% 29.83 in 6.2 mi Calm Calm - N/A   Scattered Clouds
11:00 AM 86.0 °F 95.1 °F 75.2 °F 70% 29.83 in 6.2 mi NNE 4.6 mph - N/A   Scattered Clouds
12:00 PM 87.8 °F 97.6 °F 75.2 °F 66% 29.80 in 6.2 mi NNW 4.6 mph - N/A   Scattered Clouds
1:00 PM 87.8 °F 95.6 °F 73.4 °F 62% 29.77 in 5.6 mi SSW 11.5 mph - N/A Thunderstorm Light Thunderstorm
1:01 PM - - - N/A% - 5.0 mi WNW 13.8 mph - N/A Rain , Thunderstorm Light Thunderstorms and Rain
2:00 PM 80.6 °F 86.2 °F 75.2 °F 84% 29.77 in 5.6 mi SW 4.6 mph - N/A Thunderstorm Light Thunderstorm
3:00 PM 80.6 °F 86.2 °F 75.2 °F 84% 29.74 in 5.6 mi NE 6.9 mph - N/A Thunderstorm Light Thunderstorm
4:00 PM 80.6 °F 86.2 °F 75.2 °F 84% 29.74 in 6.2 mi Calm Calm - N/A   Scattered Clouds
4:20 PM - - - N/A% - 5.6 mi Calm Calm - N/A   Light Drizzle
5:00 PM 78.8 °F - 75.2 °F 89% 29.74 in 5.6 mi Calm Calm - N/A   Light Drizzle
6:00 PM 78.8 °F - 77.0 °F 94% 29.80 in 5.6 mi Calm Calm - N/A   Mostly Cloudy
7:00 PM 78.8 °F - 77.0 °F 94% 29.80 in 5.6 mi Calm Calm - N/A   Mostly Cloudy
8:00 PM 78.8 °F - 77.0 °F 94% 29.83 in 5.6 mi Calm Calm - N/A   Mostly Cloudy
9:00 PM 77.0 °F - 75.2 °F 94% 29.83 in 5.0 mi Calm Calm - N/A   Mostly Cloudy
10:00 PM 75.2 °F - 75.2 °F 100% 29.86 in 5.0 mi Calm Calm - N/A   Mostly Cloudy
11:00 PM 75.2 °F - 75.2 °F 100% 29.86 in 5.0 mi Calm Calm - N/A   Scattered Clouds